GFSSE_con_lsi_054.txt.gz
Lid_Strength_Index
1 0 -1 -1 -1 -1 -1 -1 -1 -1 -1 -1 -1 -1 -1 -1 -1 -1 -1 -1 -1 -1 -2 -1 -1 -1 -1 -1 -1 -1 -1 -1 -1 -1 -1 -1 -2 -2 -2 -2 -1 -1 -2
0 -0 -1 -1 -1 -1 -1 -1 -1 -1 -1 -1 -1 -1 -1 -1 -1 -1 -1 -1 -1 -1 -1 -2 -1 -1 -1 -1 -1 -1 -1 -1 -1 -1 -1 -1 -2 -2 -1 -1 -2 -1 -2
0 -0 -0 -1 -1 -1 -1 -1 -1 -1 -1 -1 -2 -1 -1 -1 -1 -1 -1 -1 -1 -1 -1 -1 -1 -1 -1 -1 -1 -1 -1 -1 -1 -1 -1 -0 -0 -1 -1 -1 -2 -2 -2
-0 -0 -0 -2 -1 -1 -2 -1 -1 -1 -1 -1 -1 -2 -1 -1 -1 -1 -1 -1 -1 -1 -1 -1 -1 -1 -1 -1 -1 -1 -1 -1 -1 -1 -1 -1 -0 -1 -1 -1 -1 -1 -2
-0 -0 -0 -2 -1 -2 -2 -1 -1 -1 -1 -1 -1 -1 -1 -1 -1 -1 -1 -1 -1 -1 -1 -1 -1 -1 -1 -1 -1 -1 -1 -1 -2 -1 -0 0 0 -1 -1 -1 -1 -1 -1
0 0 -1 -2 -2 -2 -2 -1 -1 -1 -1 -1 -1 -1 -1 -1 -1 -1 -1 -1 -1 -1 -1 -1 -1 -1 -1 -1 -1 -1 -1 -1 -1 -0 -0 -1 0 -1 -1 -1 -1 -1 -1
0 -0 -0 -2 -2 -2 -1 -1 -1 -1 -1 -1 -1 -1 -1 -1 -1 -1 -1 -1 -1 -1 -1 -1 -1 -1 -1 -1 -1 -1 -1 -2 0 -0 0 0 0 -1 -1 -1 -1 -1 -1
0 -0 -0 -1 -1 -1 -1 -1 -1 -1 -1 -1 -1 -1 -1 -1 -1 -1 -1 -1 -1 -1 -1 -1 -1 -1 -1 -1 -1 -1 -1 -2 -0 1 0 0 -1 -1 -1 -1 -1 -1 -1
2 0 0 -1 -1 -2 -1 -1 -1 -1 -1 -1 -1 -1 -1 -1 -1 -1 -1 -1 -1 -1 -1 -1 -1 -1 -1 -1 -1 -1 -1 -2 0 0 -0 -0 -2 -1 -1 -1 -1 -1 -1
7 3 4 0 -0 -0 -0 -1 -2 -1 -1 -1 -1 -1 -1 -1 -1 -1 -1 -1 -1 -1 -1 -1 -1 -1 -1 -1 -1 -1 -1 -2 0 0 0 -0 -2 -1 -1 -1 -1 -1 -1
7 7 5 3 2 0 -0 -1 -1 -1 -1 -1 -1 -1 -1 -0 1 0 -1 -1 -1 -1 -1 -1 -1 -1 -1 -1 -1 -1 -1 0 0 0 0 -2 -2 -1 -1 -1 -1 -1 -1
11 8 8 2 1 1 0 1 1 0 0 0 0 1 0 0 -0 -1 -0 -1 -1 -1 -2 -1 -1 -1 -1 1 1 -1 -0 0 1 0 1 -2 -2 -1 -1 -1 -1 -1 -1
13 12 10 7 1 1 2 1 1 2 1 1 1 1 1 1 1 1 1 1 2 0 1 2 1 0 1 1 1 0 -0 0 1 1 -0 -2 -2 -2 -2 -2 -1 -1 -1
13 12 10 10 8 7 6 4 2 2 1 1 1 2 3 2 2 2 2 1 1 1 2 3 4 3 3 2 4 4 2 0 1 1 0 -2 -2 -2 -2 -2 -2 -2 -2
10 10 9 9 10 9 8 8 8 6 5 3 3 4 3 4 5 3 3 2 1 0 1 1 1 2 3 6 6 6 6 7 6 5 1 -2 -2 -2 -2 -2 -2 -2 -2
10 10 9 9 10 9 9 9 9 9 9 8 8 8 7 7 8 7 6 5 6 4 0 0 1 2 2 3 3 5 7 8 8 8 4 -0 -1 -1 -2 -2 -2 -2 -2
10 10 9 9 9 10 10 9 9 9 9 9 9 9 9 8 9 8 8 8 7 6 2 1 1 2 2 2 3 3 4 7 8 9 8 0 -0 -1 -1 -2 -2 -2 -2
10 10 10 8 9 10 10 10 9 9 10 10 10 10 9 9 9 9 9 9 8 8 6 4 3 2 3 3 2 2 2 4 4 6 9 3 1 0 -1 -1 -2 -2 -2
10 10 10 10 10 9 10 10 10 10 10 10 10 10 9 8 8 10 9 9 9 8 8 7 5 4 3 4 3 3 2 4 4 2 6 8 2 0 1 -1 -1 -1 -2
11 11 11 10 10 10 10 10 10 10 10 10 10 10 9 9 9 10 10 10 9 9 9 9 9 7 5 4 2 2 4 3 2 2 4 5 7 2 1 2 -0 -0 -2
11 11 11 10 11 10 11 11 11 11 11 10 10 9 9 9 9 10 10 10 10 10 10 9 9 8 8 6 6 6 6 5 6 4 2 4 7 5 3 2 1 1 -0
10 11 11 10 10 10 10 11 11 11 11 10 10 10 9 9 9 9 10 10 10 10 10 10 10 10 9 7 8 7 9 7 6 4 4 4 5 7 4 2 3 1 2
11 11 10 10 10 10 10 10 10 11 11 11 11 10 10 10 9 10 10 10 10 10 10 10 10 10 10 9 7 7 9 10 8 6 5 5 4 4 7 5 3 2 2
10 10 10 9 9 9 10 11 12 12 12 12 12 11 11 10 10 10 10 10 10 10 10 10 8 9 10 10 9 5 6 6 8 9 6 5 5 5 4 5 6 4 3
10 10 9 9 9 9 10 11 12 12 12 12 12 12 12 11 10 10 9 10 9 9 9 9 9 9 9 10 10 9 9 7 7 8 9 7 5 5 4 3 3 5 4
11 10 9 9 9 10 10 11 12 13 13 13 13 13 12 11 10 10 9 9 9 9 9 9 9 9 9 9 9 9 8 8 9 8 8 8 7 4 4 3 2 3 5

GFSSE_con_lsi_060.txt.gz
Lid_Strength_Index
1 0 -1 -1 -1 -1 -1 -1 -1 -1 -1 -1 -1 -1 -1 -1 -1 -1 -1 -1 -1 -1 -1 -1 -1 -1 -1 -1 -1 -1 -1 -1 -1 -1 -1 -1 -2 -2 -2 -2 -2 -1 -2
0 -0 -1 -1 -1 -1 -1 -1 -1 -1 -2 -1 -1 -1 -1 -1 -1 -1 -1 -1 -1 -1 -1 -1 -1 -1 -1 -1 -1 -1 -1 -1 -1 -1 -1 -1 -2 -2 -2 -2 -2 -1 -2
0 -0 -0 -1 -1 -1 -1 -1 -1 -1 -1 -2 -1 -1 -1 -2 -1 -1 -1 -1 -1 -1 -1 -1 -1 -1 -1 -1 -1 -1 -1 -1 -1 -1 -1 -1 -1 -2 -2 -2 -2 -2 -2
-0 -0 -0 -1 -1 -1 -1 -1 -1 -1 -1 -1 -1 -1 -1 -1 -1 -1 -1 -1 -1 -1 -1 -1 -1 -1 -1 -1 -1 -1 -1 -1 -1 -1 -1 -0 -1 -1 -1 -1 -2 -1 -1
0 -0 -0 -1 -1 -1 -1 -1 -1 -1 -1 -1 -1 -1 -1 -1 -1 -1 -1 -1 -1 -1 -1 -1 -1 -1 -1 -1 -1 -1 -1 -1 -1 -1 -0 -0 -0 -1 -1 -1 -1 -1 -1
0 0 -0 -1 -1 -1 -1 -1 -1 -1 -1 -1 -1 -1 -1 -1 -1 -1 -1 -1 -1 -1 -1 -1 -1 -1 -1 -1 -1 -1 -1 -1 -1 -0 -0 -0 -0 -1 -1 -1 -1 -1 -1
0 0 -0 -1 -1 -1 -1 -1 -1 -1 -1 -1 -1 -1 -1 -1 -1 -1 -1 -1 -1 -1 -2 -2 -1 -1 -1 -1 -1 -1 -1 -1 -0 -0 -0 -0 -0 -1 -1 -1 -1 -1 -1
0 -0 -0 -1 -1 -1 -1 -1 -1 -1 -1 -1 -1 -1 -1 -1 -1 -1 -1 -1 -1 -1 -2 -2 -2 -1 -1 -1 -1 -1 -1 -1 0 0 -0 -0 -1 -1 -1 -1 -1 -1 -1
0 0 0 -0 -0 -1 -2 -1 -1 -1 -1 -1 -1 -1 -1 -1 -1 -1 -1 -1 -1 -1 -1 -2 -2 -2 -1 -1 -1 -1 -1 -1 1 0 -0 -0 -1 -1 -1 -1 -1 -1 -1
5 5 2 0 -0 -0 -0 -1 -1 -1 -1 -1 -1 -1 -1 -1 -1 -1 -1 -1 -1 -1 -1 -1 -1 -2 -2 -1 -1 -1 -1 -1 0 0 0 0 -1 -1 -1 -1 -1 -1 -1
2 2 2 1 1 1 0 -0 -0 0 1 1 1 0 1 1 0 0 -1 -1 -1 -1 -1 -1 -1 -1 -1 -1 -2 -2 -1 0 0 0 0 -0 -1 -2 -1 -1 -1 -1 -1
8 5 4 3 3 3 2 2 2 3 3 4 3 3 4 3 4 2 1 0 -1 -1 -1 -1 -1 -0 1 1 1 -0 1 0 1 -0 0 -1 -1 -2 -2 -1 -1 -1 -1
11 10 10 7 6 4 4 4 5 7 7 9 8 6 5 5 4 4 5 5 5 1 1 1 1 1 3 3 4 4 3 3 2 1 -1 -1 -2 -2 -2 -2 -1 -1 -1
12 11 11 11 11 11 9 7 6 6 7 8 8 7 7 7 7 7 8 7 7 6 3 2 2 2 1 2 3 4 6 6 6 3 1 -1 -2 -2 -2 -2 -2 -1 -1
13 13 13 12 10 10 10 10 9 9 9 9 9 8 9 9 9 8 9 8 8 8 6 5 5 4 3 3 3 3 3 4 5 7 7 2 0 -2 -2 -2 -2 -2 -2
12 11 11 10 11 10 10 10 10 10 10 10 11 10 9 10 10 10 10 10 10 9 8 8 7 5 5 4 4 4 4 4 4 4 5 6 3 1 -1 -2 -2 -2 -2
11 11 10 10 10 11 11 10 10 10 10 11 11 11 10 10 10 11 11 11 11 10 9 10 9 8 8 6 6 5 5 3 4 5 5 5 5 2 1 -1 -2 -2 -2
11 11 10 8 10 11 11 11 11 11 11 11 11 11 10 9 10 11 11 11 11 10 10 10 10 9 9 9 8 8 6 5 5 5 4 4 5 5 2 -1 -1 -2 -2
11 11 10 10 10 10 11 11 11 11 11 11 11 11 10 9 10 11 11 11 11 11 11 11 11 10 10 10 9 8 7 7 7 5 6 4 4 4 4 1 -1 -2 -1
11 11 11 11 11 11 11 11 12 11 11 12 11 11 11 10 10 11 11 11 11 12 12 12 12 11 11 10 8 8 8 8 8 8 7 6 4 5 5 4 2 -0 -1
12 12 12 11 11 11 11 12 12 12 12 12 11 11 10 10 10 11 11 11 11 12 12 12 12 12 12 10 10 11 10 9 9 8 7 6 6 5 5 4 3 2 0
11 12 12 11 11 11 11 11 12 12 12 12 11 11 10 11 11 10 11 11 12 12 12 12 13 13 12 11 12 12 13 11 10 7 7 6 7 6 5 5 5 3 2
12 12 11 11 11 11 11 11 11 12 12 12 12 11 11 11 11 11 11 12 12 12 12 13 13 13 13 12 11 12 14 14 12 9 8 8 8 7 6 6 5 4 3
12 12 11 11 11 10 11 11 12 12 13 12 12 12 12 12 12 11 11 11 12 11 12 12 10 11 12 13 12 9 10 11 12 13 10 8 7 7 7 6 5 4 4
12 12 11 11 11 10 11 11 12 13 13 12 13 13 13 12 11 10 10 10 11 11 11 11 11 11 11 12 12 12 12 11 11 11 13 11 9 7 6 6 5 4 4
11 11 11 11 10 10 11 11 12 13 13 13 13 13 12 12 11 10 10 10 11 11 11 10 11 11 11 11 11 11 11 12 12 12 12 11 11 9 7 5 5 5 4

GFSSE_con_lsi_066.txt.gz
Lid_Strength_Index
0 -1 -1 -1 -1 -1 -1 -1 -1 -1 -1 -1 -1 -1 -1 -1 -1 -1 -1 -1 -1 -1 -1 -1 -1 -1 -1 -1 -1 -1 -1 -1 -1 -1 -1 -1 -2 -2 -2 -2 -3 -1 -1
-1 -1 -1 -1 -1 -1 -1 -1 -2 -2 -2 -1 -1 -1 -1 -1 -1 -1 -1 -1 -1 -1 -1 -1 -1 -1 -1 -1 -1 -1 -1 -1 -1 -1 -1 -2 -2 -2 -2 -1 -2 -1 -1
-1 -1 -1 -1 -1 -1 -1 -1 -1 -1 -2 -2 -1 -1 -1 -1 -1 -1 -2 -1 -1 -1 -1 -1 -1 -1 -1 -1 -1 -1 -1 -1 -1 -1 -1 -1 -1 -2 -2 -2 -2 -2 -2
-1 -1 -1 -1 -1 -1 -1 -1 -1 -1 -2 -1 -2 -1 -1 -2 -2 -2 -2 -2 -1 -1 -1 -1 -1 -1 -1 -1 -1 -1 -1 -1 -1 -1 -2 -1 -1 -1 -2 -2 -2 -1 -1
-1 -1 -1 -1 -1 -1 -1 -1 -1 -1 -1 -1 -2 -2 -1 -1 -2 -2 -2 -2 -2 -1 -1 -1 -1 -1 -1 -1 -1 -1 -1 -1 -1 -1 -1 -2 -2 -1 -1 -1 -2 -2 -1
-1 -1 -1 -1 -1 -1 -1 -1 -1 -1 -1 -1 -1 -1 -2 -2 -2 -2 -2 -2 -2 -2 -2 -2 -1 -1 -1 -1 -1 -1 -1 -1 -1 -1 -1 -1 -2 -1 -1 -1 -1 -1 -1
-1 -1 -1 -1 -1 -1 -1 -1 -1 -1 -1 -1 -1 -1 -1 -1 -1 -2 -2 -2 -1 -2 -2 -2 -2 -1 -1 -1 -1 -1 -1 -1 -1 -1 -1 -1 -2 -1 -1 -1 -1 -1 -1
-0 -1 -1 -1 -1 -1 -1 -1 -1 -1 -1 -1 -1 -1 -1 -1 -1 -1 -1 -1 -1 -1 -1 -1 -2 -2 -1 -1 -1 -1 -1 -1 -1 -1 -1 -1 -1 -1 -1 -1 -1 -1 -1
-1 -1 -1 -1 -1 -1 -1 -1 -1 -1 -1 -1 -1 -1 -1 -1 -1 -1 -1 -1 -1 -1 -1 -1 -1 -1 -1 -1 -1 -1 -1 -1 -1 -1 -1 -1 -1 -1 -1 -1 -1 -1 -1
-0 -1 -1 -1 -1 -1 -1 -1 -1 -1 -1 -1 -1 -1 -1 -1 -1 -0 -1 -2 -2 -1 -1 -1 -1 -2 -1 -1 -1 -1 -2 -1 -1 -1 -2 -1 -1 -1 -1 -1 -1 -1 -1
0 -0 -1 -1 -1 -1 -1 -0 1 2 2 2 2 2 1 0 1 3 3 1 -0 -1 -0 -1 -1 -1 -1 -0 -0 -1 -1 -0 -1 -2 -2 -1 -1 -2 -2 -1 -1 -1 -1
1 0 -0 -1 -1 -1 1 5 6 6 5 4 4 3 3 3 3 4 4 3 3 2 2 2 1 1 -1 -1 -1 -2 -1 -1 -1 -1 -1 -1 -2 -2 -2 -2 -1 -1 -1
1 0 -0 -0 -1 -0 4 4 4 4 4 4 4 3 3 3 3 3 3 3 4 3 4 3 3 2 2 2 1 -0 -1 -1 -1 -1 -0 -0 -2 -2 -2 -2 -1 -1 -1
1 0 -0 -0 2 4 5 5 4 4 4 4 4 4 4 4 4 4 4 4 4 4 4 4 4 3 3 3 2 1 1 1 -1 -1 -1 1 1 -0 -2 -2 -2 -1 -2
2 2 3 4 5 4 3 4 4 5 5 4 4 4 4 4 5 5 5 4 4 4 4 5 4 4 4 4 4 4 4 3 2 1 0 1 2 1 0 -1 -2 -2 -2
4 5 5 4 3 4 4 4 5 5 4 4 4 4 5 5 5 5 5 5 5 5 5 5 5 5 5 5 5 4 4 4 4 3 2 1 1 3 2 1 0 -2 -2
4 4 5 5 4 4 4 4 4 5 4 4 4 4 5 4 5 5 5 6 6 5 5 5 5 5 5 5 5 5 5 4 4 4 3 3 2 0 1 3 1 -0 -1
5 5 5 5 5 4 5 5 5 4 4 4 4 4 5 5 5 5 5 5 5 5 5 6 6 6 6 6 6 6 5 5 5 4 4 3 3 3 1 -0 1 -0 -1
5 5 5 4 5 5 5 5 5 5 4 4 4 4 4 5 5 4 5 5 5 5 5 6 6 6 6 6 6 6 6 6 5 5 5 4 3 3 2 -0 1 0 -1
5 5 4 5 5 5 4 5 4 4 4 4 4 4 4 4 4 4 4 5 5 5 6 6 6 6 6 6 7 7 6 6 5 5 5 5 4 2 1 2 2 2 2
5 5 5 5 5 5 5 5 5 5 4 4 4 4 4 4 5 5 5 5 5 6 6 6 7 7 7 6 7 7 7 6 5 5 5 4 4 3 3 3 3 3 2
5 5 5 5 5 4 4 4 4 4 4 3 3 4 4 5 5 5 5 5 6 6 6 6 6 7 7 7 8 8 9 8 6 4 4 4 4 4 3 3 3 3 2
5 5 5 5 4 4 4 4 4 4 4 4 4 4 4 5 5 6 6 6 6 6 6 6 6 7 8 6 7 8 10 10 8 7 6 5 4 4 4 4 4 3 3
5 4 5 4 5 4 4 4 4 4 4 4 4 4 5 6 6 6 6 6 6 6 6 6 6 6 6 7 6 6 6 7 9 10 6 6 5 5 5 4 4 4 3
4 4 4 4 5 4 4 4 4 4 4 4 4 6 6 5 5 6 6 6 6 6 6 6 6 6 6 6 7 7 6 6 7 8 10 8 6 5 5 5 4 4 4
5 4 4 5 5 4 4 4 4 4 4 5 6 6 5 5 5 5 5 5 5 5 5 5 5 6 6 6 6 6 7 8 8 8 9 9 8 7 6 5 5 5 4

GFSSE_con_lsi_072.txt.gz
Lid_Strength_Index
1 -0 -1 -1 -1 -1 -1 -2 -2 -2 -1 -1 -1 -1 -2 -2 -1 -1 -1 -1 -1 -1 -1 -1 -1 -1 -2 -2 -2 -2 -1 -1 -1 -1 -2 -2 -2 -2 -2 -2 -2 -1 -1
0 -0 -2 -1 -1 -1 -1 -2 -2 -2 -2 -1 -2 -2 -2 -2 -2 -2 -1 -1 -1 -1 -1 -1 -1 -1 -1 -2 -1 -1 -1 -1 -1 -1 -2 -2 -2 -2 -2 -1 -2 -1 -1
0 -0 -1 -1 -1 -1 -1 -1 -2 -2 -2 -2 -2 -2 -2 -2 -2 -2 -2 -1 -1 -1 -1 -1 -1 -1 -1 -1 -1 -1 -1 -1 -1 -2 -2 -1 -0 -2 -2 -2 -2 -2 -2
-0 -0 -0 -1 -1 -1 -1 -1 -2 -2 -2 -2 -2 -2 -2 -2 -2 -2 -2 -2 -2 -2 -1 -1 -1 -1 -1 -1 -1 -1 -1 -1 -1 -2 -1 -1 -1 -2 -2 -2 -2 -2 -2
0 -0 -1 -1 -1 -1 -1 -1 -1 -2 -2 -2 -2 -2 -2 -2 -2 -2 -2 -2 -2 -2 -2 -2 -1 -1 -1 -1 -1 -1 -1 -1 -2 -1 -0 -0 -0 -1 -2 -2 -2 -2 -2
0 -0 -1 -1 -1 -1 -1 -1 -1 -1 -1 -1 -1 -2 -2 -2 -2 -2 -2 -2 -2 -2 -2 -2 -2 -1 -1 -1 -1 -1 -1 -1 -2 -1 -0 -1 -0 -2 -2 -2 -1 -2 -2
0 -0 -0 -1 -1 -1 -1 -1 -1 -1 -1 -1 -1 -1 -1 -1 -1 -1 -1 -1 -1 -1 -2 -2 -2 -2 -2 -1 -1 -1 -1 -1 -1 0 0 -0 -0 -2 -1 -1 -1 -1 -1
0 -0 -0 -1 -2 -1 -1 -1 -1 -1 -1 -1 -1 -1 -1 -1 -1 -1 -1 -1 -1 -1 -1 -2 -1 -1 -1 -1 -1 -1 -2 -2 -1 -0 0 -0 -2 -2 -1 -1 -1 -1 -1
0 0 -0 -0 -1 -2 -1 -1 -1 -1 -1 -1 -1 -1 -1 -1 -1 -2 -2 -2 -1 -1 -2 -2 -2 -2 -1 -1 -1 -1 -2 -3 -1 -0 -0 -0 -2 -1 -1 -1 -1 -1 -1
1 0 0 -0 -0 -0 -0 -1 -1 -1 -1 -1 -1 -1 -2 -1 -0 1 1 -0 -0 -0 -0 -0 -0 -1 -2 -1 -1 -2 -2 -3 1 1 -0 -1 -2 -2 -1 -1 -1 -1 -1
1 0 0 0 -0 -0 -0 -0 -1 -1 -1 -1 -1 -2 -1 2 2 3 1 1 1 1 1 1 -0 -2 -2 -3 -1 -2 -3 0 0 1 -0 -2 -2 -2 -2 -2 -1 -1 -1
2 1 1 0 0 -0 -0 3 5 4 2 3 3 3 3 4 4 3 1 -1 -1 -1 -2 -2 -2 -2 0 3 2 -1 1 1 1 0 1 -2 -2 -2 -2 -2 -2 -1 -1
2 1 1 0 0 1 3 4 4 3 4 6 6 6 6 6 6 6 6 5 6 2 6 5 5 5 6 6 6 7 6 5 3 1 -1 -2 -1 -2 -2 -2 -2 -2 -1
2 2 1 0 1 2 3 3 5 6 7 7 7 7 7 7 7 7 7 6 7 7 7 7 7 7 7 7 8 8 8 7 7 6 -0 -2 -1 -0 -0 -1 -1 -2 -2
2 2 1 2 3 3 5 7 8 7 7 7 7 7 6 6 7 7 7 7 7 7 8 8 8 8 8 7 7 8 8 8 7 7 6 -1 -1 1 1 0 -1 -1 -2
2 2 3 3 4 6 7 7 7 7 6 6 7 7 6 7 7 7 7 7 7 7 8 8 8 8 8 8 8 8 8 8 8 7 6 5 -2 -2 0 1 1 0 -1
3 3 4 6 7 8 7 7 6 6 6 6 6 7 6 6 7 6 7 7 7 7 7 7 8 7 8 7 8 8 8 8 8 8 8 6 5 0 -2 -0 1 0 0
5 5 6 6 7 6 7 7 7 6 6 6 6 6 6 6 6 6 6 7 7 7 7 7 8 8 8 8 9 8 8 8 8 8 7 7 6 5 2 -1 1 0 0
6 6 6 6 6 6 7 7 7 7 6 6 6 6 6 6 6 6 6 7 6 6 7 7 7 8 9 9 8 9 9 8 8 6 8 8 7 5 5 1 -1 -1 -0
6 6 6 6 7 7 7 7 7 7 7 6 6 6 6 6 6 6 6 6 7 7 7 7 8 8 8 9 7 8 9 8 8 8 8 7 7 6 5 5 3 2 -0
6 7 6 7 7 7 7 7 7 7 7 7 6 6 6 6 6 7 7 7 7 7 8 7 8 9 9 9 10 10 9 8 9 9 9 8 8 7 6 5 4 4 4
7 7 6 6 7 6 6 6 6 7 6 6 5 6 6 6 6 7 7 7 7 8 8 8 8 9 9 9 11 11 12 11 10 9 9 9 9 9 8 7 8 7 6
7 6 6 7 6 6 6 6 6 6 6 6 6 6 5 6 6 7 7 8 8 8 9 8 9 9 10 10 10 11 13 14 11 9 10 9 9 9 9 8 7 7 7
6 6 6 6 6 6 6 6 6 6 7 6 6 5 5 6 6 7 7 8 8 8 9 9 8 10 10 11 10 8 10 11 12 12 10 9 8 8 8 8 8 7 7
6 6 6 6 6 6 6 6 6 6 6 5 6 6 7 7 7 7 7 8 8 8 8 8 8 8 8 9 10 10 10 10 10 11 12 10 9 8 8 8 7 7 7
5 5 6 6 6 6 6 6 6 6 6 6 6 7 7 7 7 7 6 7 7 7 7 7 8 8 9 9 9 10 10 10 10 10 11 11 11 9 8 8 8 8 7

GFSSE_con_lsi_078.txt.gz
Lid_Strength_Index
1 0 -1 -1 -2 -2 -1 -2 -2 -1 -1 -1 -2 -2 -1 -1 -1 -1 -1 -1 -1 -1 -1 -2 -2 -2 -2 -2 -2 -1 -1 -1 -2 -2 -2 -2 -2 -2 -2 -1 -1 -1 -1
0 -0 -1 -2 -2 -1 -1 -2 -2 -2 -2 -2 -2 -2 -2 -2 -2 -2 -2 -1 -1 -1 -1 -1 -2 -2 -1 -1 -1 -1 -2 -1 -2 -2 -2 -2 -2 -2 -2 -1 -1 -1 -1
0 -0 -1 -2 -2 -2 -2 -2 -2 -2 -2 -2 -2 -2 -2 -2 -2 -2 -2 -2 -1 -1 -1 -1 -1 -1 -1 -1 -1 -2 -2 -2 -1 -1 -1 -0 -0 -2 -2 -2 -1 -1 -1
-0 -0 -0 -2 -2 -2 -2 -2 -2 -2 -2 -2 -2 -2 -2 -2 -2 -2 -2 -2 -2 -2 -1 -1 -1 -1 -1 -1 -1 -1 -2 -2 -1 -2 -0 -0 -0 -2 -2 -2 -2 -2 -1
-0 -0 -0 -2 -2 -2 -2 -2 -2 -2 -2 -2 -2 -2 -2 -2 -2 -2 -2 -2 -2 -2 -2 -2 -1 -1 -2 -1 -1 -1 -2 -2 -2 -1 -0 0 0 -1 -2 -2 -1 -2 -2
0 0 -1 -2 -1 -1 -2 -2 -2 -2 -2 -2 -2 -2 -2 -2 -2 -2 -2 -2 -2 -2 -2 -2 -2 -2 -2 -2 -2 -2 -2 -2 -0 -0 -0 -0 0 -2 -2 -2 -1 -1 -1
0 -0 -0 -2 -2 -1 -1 -1 -1 -1 -1 -1 -1 -1 -2 -1 -1 -1 -1 -2 -2 -1 -1 -2 -2 -2 -1 -2 -2 -2 -1 -1 1 -0 -0 0 -0 -1 -1 -1 -1 -1 -1
0 -0 -0 -1 -2 -2 -2 -1 -1 -1 -1 -1 -1 -1 -1 -1 -2 -2 -1 -2 -2 -2 -2 -2 -2 -2 -2 -2 -2 -2 -2 -2 1 -0 -0 0 -1 -2 -1 -1 -1 -1 -1
-0 -0 -0 -0 -1 -1 -1 -1 -1 -1 -1 -1 -1 -1 -1 -2 -2 -1 -1 -0 -0 -0 -0 -1 -0 -0 -2 -2 -2 -2 -2 -2 1 1 -0 -0 -2 -1 -1 -1 -1 -1 -1
0 -0 0 0 -0 -0 -0 -1 -1 -1 -1 -1 -2 -2 -2 -1 -0 0 0 -0 -0 -1 -0 -0 -0 1 0 0 1 1 2 1 2 0 -0 -0 -2 -2 -2 -1 -1 -1 -1
1 0 0 0 -0 0 0 -1 -1 -2 -2 -2 -2 -2 1 4 4 3 -1 -1 0 -0 -0 0 0 0 2 2 1 2 4 8 1 0 0 -2 -2 -2 -2 -2 -1 -1 -1
2 1 1 0 1 0 -0 1 1 2 2 3 1 6 6 6 5 4 2 1 1 1 1 1 1 2 5 9 8 5 8 8 7 0 0 -3 -2 -1 -1 -2 -1 -1 -1
2 1 1 1 1 1 1 4 5 8 9 8 8 8 8 8 9 9 9 9 9 5 9 8 9 9 9 9 9 9 9 9 9 7 -1 -2 -2 -0 0 -0 -1 -1 -1
2 1 1 1 2 4 4 6 6 10 10 9 9 9 9 10 10 10 9 9 9 10 10 10 10 9 9 9 10 10 10 10 9 9 7 1 -0 -1 -0 0 0 -0 -1
2 2 1 2 5 5 7 9 9 10 9 9 9 9 9 9 10 9 9 9 10 10 10 10 10 10 10 9 9 9 10 10 10 9 9 3 1 -0 -0 0 0 0 -0
2 2 3 4 8 11 11 11 10 9 9 9 9 9 8 9 9 9 9 9 9 9 10 10 10 10 10 10 9 9 10 10 10 9 9 8 2 1 0 1 1 1 0
4 5 5 8 11 12 11 10 9 8 8 9 8 8 8 8 9 9 9 9 9 9 9 9 9 9 9 9 10 9 9 10 9 9 9 9 8 4 2 1 1 1 1
6 6 7 9 11 10 10 9 8 8 8 8 9 8 8 7 8 8 8 9 9 8 8 9 9 9 9 10 10 9 10 9 10 10 9 9 9 8 5 2 -0 2 1
8 10 11 11 10 10 10 8 8 8 8 9 9 8 8 7 7 8 8 8 8 8 8 9 9 9 10 9 9 9 10 10 10 9 10 10 9 9 8 5 1 -0 -0
10 10 11 11 10 9 9 9 9 8 8 8 8 8 7 7 7 8 8 8 8 9 9 9 9 9 10 10 8 9 10 10 11 11 11 9 10 9 9 9 8 7 2
10 10 10 10 10 8 9 9 9 9 9 8 8 7 7 7 7 8 8 8 8 9 9 9 9 10 10 10 11 11 11 11 12 11 11 11 10 10 10 9 9 9 8
10 9 10 9 9 9 8 9 9 9 9 8 8 8 7 7 7 8 8 8 9 9 9 10 10 10 10 10 12 13 14 12 11 10 10 11 11 11 9 9 10 10 10
10 10 9 9 8 8 8 8 8 8 8 8 8 8 8 7 7 8 8 9 9 10 10 10 10 10 11 11 11 12 14 15 14 11 11 11 11 11 11 10 10 10 10
10 8 8 8 8 8 8 8 8 8 9 8 8 8 7 7 7 7 8 8 8 8 9 9 8 10 10 11 11 9 11 11 13 14 11 11 10 10 10 10 10 9 9
9 8 8 8 8 8 8 7 8 8 8 8 7 7 7 7 7 7 7 8 8 9 9 9 9 10 10 11 11 11 12 11 12 12 13 12 10 10 10 10 10 10 9
8 8 8 8 8 8 8 8 8 7 7 7 7 7 8 8 8 8 7 8 8 9 9 9 9 10 10 11 11 11 11 12 12 12 14 12 12 11 10 10 10 9 9

GFSSE_con_lsi_084.txt.gz
Lid_Strength_Index
1 0 -1 -1 -1 -1 -1 -1 -1 -1 -2 -1 -1 -1 -1 -1 -1 -1 -1 -1 -1 -2 -2 -2 -2 -2 -2 -2 -2 -1 -2 -2 -2 -2 -2 -2 -2 -1 -2 -1 -1 -1 -1
0 -0 -1 -1 -2 -1 -2 -1 -1 -1 -1 -1 -1 -1 -1 -2 -2 -2 -2 -2 -1 -1 -1 -2 -2 -2 -2 -2 -2 -2 -1 -2 -2 -2 -2 -1 -2 -2 -2 -1 -2 -1 -1
0 -0 -0 -2 -2 -2 -2 -2 -2 -1 -2 -2 -2 -2 -2 -2 -2 -1 -1 -1 -1 -1 -1 -2 -1 -2 -1 -2 -2 -2 -1 -1 -2 -2 -1 -0 -0 -2 -2 -2 -2 -1 -1
-0 -0 -0 -2 -2 -2 -2 -2 -2 -2 -2 -2 -2 -2 -2 -2 -2 -2 -2 -2 -2 -2 -2 -2 -2 -2 -2 -2 -2 -2 -1 -2 -2 -1 -0 -0 -0 -2 -2 -2 -2 -1 -1
0 -0 -0 -2 -2 -2 -2 -2 -2 -2 -2 -2 -2 -2 -2 -2 -2 -2 -2 -2 -2 -2 -2 -2 -2 -2 -2 -2 -2 -2 -2 -1 -1 -1 -0 0 0 -1 -2 -2 -2 -2 -1
1 0 -1 -2 -2 -2 -2 -2 -2 -2 -2 -2 -1 -1 -1 -2 -2 -2 -2 -2 -2 -2 -2 -2 -2 -2 -2 -2 -2 -2 -1 -1 -1 -0 -0 -0 -0 -2 -2 -2 -2 -2 -2
1 0 -0 -2 -2 -2 -2 -2 -2 -2 -2 -2 -1 -1 -1 -1 -1 -2 -2 -2 -2 -2 -2 -2 -2 -2 -2 -2 -2 -2 -1 -1 -0 -0 -0 -0 -0 -2 -2 -2 -2 -2 -2
0 0 -0 -1 -2 -2 -2 -2 -2 -2 -1 -1 -1 -1 -1 -2 -2 -2 -2 -1 -1 -1 -1 -1 -1 -1 -1 -1 -2 -2 -2 -1 -0 0 0 -0 -2 -2 -2 -1 -1 -1 -1
0 0 0 0 -1 -2 -2 -1 -1 -1 -1 -1 -1 -1 -2 -2 -1 -0 -0 -1 -1 -1 -0 -0 -0 -0 -0 0 -0 -2 -2 -2 1 -0 -0 0 -2 -2 -2 -2 -1 -1 -1
1 0 1 0 0 0 -0 -1 -1 -1 -1 -1 -1 -2 -1 -1 -1 -1 -1 -1 -1 -1 -1 -0 0 0 0 0 1 2 3 1 1 1 -0 -0 -2 -2 -2 -2 -2 -2 -1
1 2 1 0 0 0 -0 -1 -1 -1 -2 -2 -2 -2 2 5 4 3 -1 -1 -0 -0 0 1 1 2 3 2 2 3 5 9 8 4 2 -1 -1 -1 -1 -1 -2 -2 -2
2 2 1 1 1 1 -0 2 2 1 2 1 5 6 6 6 4 3 2 1 1 1 1 2 2 4 7 10 9 7 10 10 9 9 6 -0 -1 -2 -1 -1 -1 -2 -2
2 1 1 1 1 1 2 5 6 6 2 5 6 6 9 9 10 10 10 10 10 6 10 9 10 10 10 10 10 11 10 10 11 10 6 1 -0 -1 -1 -0 -1 -1 -1
2 1 1 1 2 2 4 5 8 10 7 8 8 9 10 11 11 11 11 11 11 11 11 11 11 10 10 10 11 11 11 11 11 10 8 2 1 0 -1 -1 -0 -0 -0
2 1 1 1 3 4 6 9 10 9 9 9 10 10 10 10 11 10 11 10 10 10 10 10 10 10 10 10 10 10 11 11 11 10 10 4 2 1 0 -0 -1 0 0
2 2 1 2 4 6 8 10 10 11 11 10 10 10 10 10 10 10 10 10 10 10 10 10 10 10 10 10 10 10 10 11 11 11 10 9 3 1 0 -0 0 -0 1
2 1 2 3 5 5 7 11 11 11 9 10 10 10 9 9 9 10 10 10 10 10 9 10 10 10 10 10 10 10 10 10 10 10 10 9 8 4 0 -0 -2 -1 0
2 2 3 3 5 7 8 10 11 9 9 9 9 9 9 9 9 9 9 9 9 9 9 10 10 10 10 10 10 10 10 10 10 10 10 10 9 9 7 2 1 0 -1
2 3 4 6 8 8 11 10 10 10 10 10 9 9 8 8 8 9 9 9 9 9 9 9 10 10 10 10 9 10 11 11 11 10 11 10 10 9 9 6 4 3 1
3 4 8 8 9 10 12 11 10 10 10 10 9 9 8 8 8 9 9 9 9 9 10 10 11 11 11 11 9 10 11 11 11 11 12 10 10 10 10 10 10 9 4
6 9 10 10 10 11 11 11 11 10 10 10 9 9 8 8 8 8 9 9 9 9 10 10 10 11 11 11 11 12 12 12 12 12 12 12 11 10 11 10 10 10 9
8 9 11 11 12 12 10 11 10 10 10 9 9 9 8 8 8 8 8 9 9 9 10 10 10 10 10 11 12 13 13 12 12 11 11 11 11 10 10 9 10 10 10
10 11 11 11 12 11 10 9 9 9 9 9 9 9 8 8 8 8 8 8 9 9 9 10 10 10 11 11 11 11 14 15 13 11 11 11 11 10 10 10 9 9 9
11 11 12 12 11 10 9 9 9 9 9 9 9 9 8 8 8 8 8 8 9 9 10 10 9 10 10 11 11 10 12 12 13 14 12 11 10 10 10 10 10 10 9
14 13 12 11 11 10 9 9 9 10 10 9 9 8 8 8 8 8 8 9 9 10 10 10 10 11 11 11 12 12 13 13 13 13 13 13 12 11 10 10 10 10 9
14 13 12 11 11 10 9 9 9 10 9 8 8 8 8 9 9 9 9 9 10 10 10 10 10 11 11 12 12 12 12 12 13 14 15 14 14 12 11 10 10 9 9

GFSSE_con_lsi_087.txt.gz
Lid_Strength_Index
0 -1 -2 -2 -2 -1 -1 -1 -2 -2 -1 -1 -1 -2 -1 -1 -1 -2 -1 -1 -2 -2 -2 -2 -2 -2 -2 -2 -2 -2 -2 -2 -2 -2 -2 -2 -2 -2 -2 -1 -2 -1 -2
-0 -1 -2 -2 -2 -1 -1 -1 -2 -1 -1 -1 -1 -1 -1 -2 -2 -2 -1 -1 -2 -2 -2 -2 -2 -2 -2 -2 -2 -1 -2 -2 -2 -2 -2 -2 -2 -2 -2 -2 -2 -1 -2
-0 -1 -1 -2 -2 -2 -2 -2 -1 -2 -2 -2 -2 -2 -2 -2 -1 -2 -2 -2 -2 -2 -2 -2 -2 -2 -2 -2 -2 -1 -2 -2 -2 -2 -2 -2 -2 -2 -2 -2 -2 -1 -2
-0 -1 -1 -2 -2 -2 -2 -2 -2 -2 -2 -2 -2 -2 -2 -2 -2 -2 -2 -2 -2 -2 -2 -2 -2 -2 -2 -2 -1 -2 -2 -2 -2 -2 -2 -1 -1 -2 -2 -2 -2 -2 -2
-0 -1 -1 -2 -2 -2 -2 -2 -2 -2 -2 -2 -2 -2 -2 -2 -2 -2 -2 -2 -2 -2 -2 -2 -2 -2 -2 -2 -1 -2 -2 -2 -1 -2 -1 -2 -2 -2 -2 -2 -2 -2 -1
-0 -1 -1 -2 -2 -2 -2 -2 -2 -2 -2 -2 -2 -2 -2 -2 -2 -2 -2 -2 -2 -2 -2 -2 -2 -2 -2 -2 -1 -2 -2 -2 -1 -1 -1 -2 -2 -2 -2 -2 -2 -2 -2
-0 -1 -1 -2 -2 -2 -2 -2 -2 -2 -2 -2 -2 -1 -1 -1 -2 -2 -2 -2 -2 -2 -2 -2 -2 -2 -2 -2 -2 -1 -2 -1 -1 -1 -1 -2 -2 -2 -2 -2 -2 -2 -2
-0 -1 -1 -2 -2 -2 -2 -2 -2 -2 -1 -1 -1 -1 -2 -2 -2 -2 -2 -2 -1 -1 -2 -2 -1 -1 -1 -2 -2 -2 -2 -2 -1 -1 -1 -2 -2 -2 -2 -2 -1 -2 -2
-1 -1 -1 -1 -1 -2 -2 -2 -2 -1 -1 -1 -1 -1 -2 -2 -1 -1 -1 -1 -1 -1 -1 -1 -1 -1 -1 -1 -1 -2 -2 -2 -1 -1 -1 -1 -3 -2 -2 -2 -2 -2 -1
-0 -0 -0 -1 -1 -1 -1 -1 -1 -1 -1 -1 -2 -1 -1 -2 -1 -1 -1 -1 -1 -1 -1 -0 0 -0 -0 0 1 1 3 2 1 1 -0 -1 -2 -1 -1 -2 -2 -2 -1
0 -0 -1 -1 -1 -1 -1 -1 -1 -1 -1 -2 -2 -1 0 0 -1 -1 -1 -1 -1 -0 0 1 1 2 3 2 2 3 4 5 4 4 1 -1 -2 -2 -2 -2 -2 -2 -2
2 1 -0 -1 -1 -1 -1 -1 -1 -0 0 -1 1 2 1 1 0 0 -0 -0 0 1 1 2 3 4 5 6 6 5 6 5 5 5 2 -0 -1 -2 -2 -1 -1 -2 -2
1 1 0 -0 -1 -1 -1 -0 0 0 1 3 3 3 3 4 4 5 5 5 5 5 6 6 6 6 6 6 6 6 6 6 6 5 4 1 0 -1 -1 -1 -1 -1 -1
2 1 0 -0 -0 -1 0 1 2 1 2 3 3 6 6 6 6 6 6 6 6 6 6 6 6 6 6 6 6 6 6 6 6 6 5 2 1 0 -0 -1 -1 -0 -0
2 1 0 1 -0 -0 1 4 6 2 2 4 4 6 6 6 6 6 6 6 6 5 5 6 6 6 6 6 6 6 7 7 6 6 5 2 1 0 0 -0 -0 -0 0
2 1 0 1 0 1 2 5 6 5 4 6 5 6 6 6 6 6 6 6 6 5 6 6 6 6 6 6 6 6 6 6 6 6 6 5 1 -0 -1 -2 -2 -0 0
1 1 1 1 0 2 4 6 8 7 7 7 6 6 6 6 6 6 6 6 6 6 6 6 6 5 5 6 6 6 6 6 6 6 6 5 5 4 1 0 -1 -2 -2
1 1 1 0 2 3 5 8 8 8 7 6 6 6 6 6 5 5 5 5 5 5 5 5 5 5 6 6 6 6 6 6 6 6 6 6 5 6 5 2 1 0 -1
1 1 1 1 3 4 6 7 8 7 7 7 6 6 6 5 5 5 5 5 5 5 5 5 5 5 5 5 6 6 6 6 6 7 6 6 6 6 6 5 4 3 2
1 1 1 2 4 7 7 9 9 8 8 7 6 5 5 5 5 5 4 5 5 5 5 5 5 5 5 6 6 6 5 6 6 6 6 6 6 6 6 5 6 6 4
1 2 3 5 7 8 9 9 9 7 7 6 5 5 5 4 4 4 4 5 5 5 5 5 5 5 5 5 5 5 5 6 6 6 5 5 5 5 5 5 5 6 6
2 3 5 5 8 8 8 8 6 6 6 5 5 5 5 4 4 5 4 4 4 4 4 5 4 5 5 5 6 6 7 5 5 6 5 6 6 5 6 6 6 6 5
4 5 6 7 8 8 8 7 6 6 6 6 5 5 5 5 5 4 4 4 4 4 4 5 5 5 5 5 6 6 8 8 8 6 6 6 6 6 6 6 6 6 6
5 6 7 8 8 9 7 6 5 5 5 5 4 4 4 5 4 4 4 4 4 4 5 5 5 5 5 6 6 6 6 7 9 9 7 7 6 6 6 6 6 6 6
7 8 8 8 9 8 7 5 5 5 5 5 5 5 4 4 4 5 5 5 5 5 5 5 6 6 6 6 6 7 7 7 8 9 10 9 7 7 6 6 6 6 6
9 10 10 9 9 8 7 6 5 5 6 5 5 4 4 4 4 5 5 5 5 5 5 5 6 6 6 7 7 7 7 8 8 9 9 9 9 8 7 7 6 6 5

GFSSE_con_lsi_090.txt.gz
Lid_Strength_Index
0 -1 -2 -2 -1 -1 -1 -2 -1 -1 -1 -1 -1 -1 -1 -1 -1 -1 -1 -1 -1 -2 -2 -2 -2 -2 -2 -2 -2 -2 -2 -2 -2 -2 -2 -2 -2 -2 -2 -1 -2 -1 -1
-1 -1 -2 -2 -1 -1 -1 -2 -1 -1 -1 -1 -1 -1 -1 -2 -2 -1 -1 -1 -1 -1 -2 -2 -2 -2 -2 -2 -2 -2 -2 -2 -2 -2 -2 -2 -2 -2 -2 -1 -2 -1 -1
-0 -1 -1 -2 -2 -1 -1 -1 -1 -1 -1 -1 -1 -1 -1 -1 -1 -2 -1 -2 -2 -2 -2 -2 -2 -2 -2 -1 -2 -2 -2 -2 -2 -2 -3 -2 -2 -2 -2 -2 -1 -1 -1
-1 -1 -1 -2 -2 -2 -2 -1 -2 -2 -2 -2 -2 -2 -2 -2 -2 -2 -2 -2 -2 -2 -2 -2 -2 -2 -2 -1 -2 -2 -2 -2 -2 -3 -2 -1 -1 -2 -2 -2 -2 -1 -1
-1 -1 -1 -2 -2 -2 -2 -2 -2 -2 -2 -2 -2 -2 -2 -2 -2 -2 -2 -2 -2 -2 -2 -2 -2 -2 -2 -1 -1 -2 -2 -2 -2 -2 -2 -2 -2 -2 -2 -2 -2 -2 -1
-1 -1 -2 -2 -2 -2 -2 -2 -2 -2 -2 -1 -2 -2 -2 -2 -2 -2 -2 -2 -2 -2 -2 -2 -2 -2 -2 -1 -1 -1 -1 -2 -3 -2 -2 -2 -2 -2 -2 -2 -2 -2 -1
-0 -1 -1 -2 -2 -2 -2 -2 -2 -2 -1 -1 -1 -1 -1 -2 -2 -2 -2 -2 -2 -2 -2 -2 -2 -2 -2 -2 -1 -2 -2 -2 -2 -2 -2 -2 -2 -2 -2 -2 -2 -2 -2
-0 -1 -1 -2 -2 -2 -2 -2 -1 -2 -1 -1 -1 -1 -1 -2 -2 -2 -2 -2 -2 -2 -2 -2 -1 -2 -2 -2 -2 -2 -2 -2 -2 -1 -2 -2 -3 -2 -2 -2 -2 -2 -2
-1 -1 -1 -1 -2 -2 -2 -1 -2 -1 -1 -1 -1 -2 -1 -2 -2 -1 -2 -2 -2 -2 -1 -1 -1 -1 -2 -1 -1 -1 -2 -2 -2 -1 -1 -2 -3 -2 -3 -2 -2 -1 -2
-1 -1 -1 -1 -1 -1 -1 -2 -1 -1 -1 -1 -2 -1 -2 -2 -2 -1 -2 -2 -2 -1 -1 -0 -0 -1 -0 0 0 1 1 -1 -0 -1 -1 -1 -2 -2 -2 -2 -2 -2 -2
0 -0 -1 -1 -1 -1 -1 -1 -1 -1 -1 -1 -1 -1 -1 -2 -2 -2 -2 -1 -1 -0 0 1 1 2 2 2 2 3 1 3 2 1 0 -1 -2 -2 -2 -2 -2 -2 -2
1 0 -0 -1 -1 -1 -1 -1 -1 -1 -1 -1 -2 -1 -1 -1 -1 -1 -1 -1 -0 1 1 2 3 3 2 4 4 2 4 3 3 3 2 0 -1 -1 -2 -1 -1 -2 -2
1 0 -0 -0 -1 -1 -1 -1 -1 -1 -1 0 0 0 0 -0 0 1 2 3 3 4 4 4 4 5 5 4 5 5 4 4 4 4 3 1 0 -1 -1 -2 -1 -1 -1
1 1 -0 -0 -1 -1 -1 -1 -1 -1 1 2 2 3 2 3 4 4 4 4 4 4 4 4 4 4 4 4 4 4 4 4 4 4 2 0 -0 0 -0 -1 -1 -1 -1
1 1 0 -0 -0 -1 -1 -1 -1 -1 0 2 3 4 4 4 4 4 4 4 4 4 4 4 4 4 4 4 4 4 4 4 4 4 3 0 -1 -1 -2 -2 -1 -1 -0
1 1 0 0 -0 -1 -0 -1 -1 -1 0 3 4 5 5 4 4 4 4 4 4 3 3 4 4 4 4 4 4 4 4 4 4 4 4 3 2 0 -0 -2 -2 -2 -2
1 0 0 0 -0 -0 -0 0 3 0 1 3 4 5 4 4 4 4 4 4 4 4 4 3 3 3 3 3 4 4 4 4 4 4 4 3 3 3 1 1 -1 -1 -2
1 1 0 0 -0 -0 1 3 5 3 3 4 5 5 4 5 4 4 4 3 3 3 3 3 2 3 3 3 3 3 4 4 4 4 4 4 4 4 3 3 2 1 0
1 1 1 0 0 -0 4 6 5 6 5 5 5 5 5 5 4 3 3 3 3 3 2 2 2 3 3 3 4 3 3 3 4 4 4 4 4 4 4 5 4 4 3
1 1 1 0 0 3 5 6 7 6 6 6 6 4 4 3 3 3 2 2 2 2 2 2 3 3 3 3 4 4 3 3 3 3 3 3 3 3 3 3 3 4 5
1 1 1 1 0 3 3 6 6 6 6 6 5 3 3 3 3 2 2 2 2 3 2 3 3 3 2 2 3 3 3 3 3 4 3 3 4 4 4 4 4 4 4
2 1 1 1 1 3 3 5 4 5 5 5 3 3 2 2 2 2 2 3 2 3 3 2 2 3 3 3 4 4 5 4 4 4 4 4 4 4 4 4 4 5 4
2 1 1 1 2 2 4 5 4 5 5 4 3 3 2 2 2 2 2 2 2 2 2 2 2 2 3 3 4 4 6 6 5 4 4 4 4 4 4 4 5 5 5
2 1 1 1 2 3 4 5 5 4 4 3 3 3 2 3 3 3 2 2 2 2 2 2 2 3 3 4 4 4 4 5 7 8 5 5 5 5 5 5 5 5 5
1 1 1 2 3 4 5 4 4 4 2 2 3 3 3 2 3 2 2 2 2 2 2 3 3 3 3 4 4 4 5 5 5 7 9 7 6 5 5 5 5 5 5
1 2 3 3 4 5 6 5 4 3 3 3 3 3 3 2 2 2 2 2 2 2 3 3 3 3 3 4 4 4 5 6 6 7 8 8 8 7 6 5 5 5 5

GFSSE_con_lsi_093.txt.gz
Lid_Strength_Index
0 -1 -2 -1 -1 -1 -1 -1 -1 -1 -1 -1 -1 -1 -1 -1 -1 -1 -1 -1 -1 -1 -2 -2 -2 -2 -2 -2 -2 -2 -2 -2 -2 -2 -2 -2 -2 -2 -2 -2 -2 -1 -2
-0 -1 -2 -1 -1 -1 -1 -1 -1 -1 -1 -1 -1 -1 -1 -2 -1 -1 -1 -1 -1 -2 -2 -2 -2 -2 -1 -2 -2 -2 -2 -2 -2 -2 -2 -2 -2 -2 -2 -1 -2 -1 -1
-0 -1 -1 -1 -1 -1 -1 -1 -1 -1 -1 -1 -1 -1 -1 -1 -2 -1 -2 -2 -2 -2 -2 -2 -2 -2 -1 -2 -2 -2 -2 -2 -2 -3 -4 -2 -1 -2 -2 -2 -1 -1 -1
-1 -1 -1 -2 -1 -1 -1 -1 -2 -2 -2 -1 -1 -1 -1 -2 -2 -2 -2 -2 -2 -2 -2 -2 -2 -1 -1 -2 -2 -2 -2 -2 -3 -3 -1 -1 -1 -2 -2 -2 -2 -2 -2
-0 -1 -1 -2 -2 -2 -2 -2 -2 -2 -2 -2 -2 -2 -2 -2 -2 -2 -2 -2 -2 -2 -2 -2 -2 -1 -1 -1 -1 -1 -2 -2 -3 -2 -1 -1 -1 -1 -2 -2 -2 -2 -1
-0 -1 -1 -2 -2 -2 -2 -2 -2 -2 -2 -1 -2 -2 -2 -2 -2 -2 -2 -2 -2 -2 -2 -2 -2 -1 -1 -1 -1 -1 -1 -2 -3 -1 -2 -2 -1 -2 -2 -2 -2 -2 -2
-0 -1 -1 -2 -2 -2 -2 -2 -2 -1 -1 -1 -1 -1 -2 -2 -2 -2 -2 -2 -2 -2 -2 -2 -2 -2 -1 -1 -1 -1 -2 -2 -1 -1 -1 -2 -2 -2 -2 -2 -2 -2 -2
-0 -1 -1 -2 -2 -2 -2 -2 -2 -1 -1 -1 -1 -1 -2 -2 -2 -1 -1 -2 -2 -2 -2 -2 -2 -2 -2 -2 -2 -2 -2 -3 -1 -1 -2 -2 -3 -2 -2 -2 -2 -2 -2
-1 -1 -1 -1 -1 -2 -2 -2 -1 -1 -1 -1 -1 -2 -2 -2 -2 -1 -1 -2 -2 -2 -2 -2 -2 -2 -2 -1 -1 -1 -1 -3 -1 -1 -1 -1 -3 -3 -3 -2 -2 -2 -2
-0 -0 -0 -1 -1 -1 -1 -2 -1 -1 -1 -1 -2 -1 -3 -2 -2 -2 -2 -2 -2 -1 -1 -1 -1 -1 -0 0 1 1 -0 -2 0 -1 -0 -1 -2 -3 -2 -2 -3 -2 -2
0 -0 -0 -0 -1 -1 -1 -1 -1 -1 -1 -1 -1 -2 -2 -1 -1 -2 -2 -2 -1 -0 0 1 2 2 1 1 2 2 -1 3 3 2 2 -0 -1 -2 -2 -2 -2 -2 -2
1 0 -0 -0 -1 -1 -1 -1 -1 -1 -1 -1 -1 -1 -1 -1 -1 -1 -1 -1 0 1 1 2 3 2 0 4 4 1 4 4 4 3 2 0 -0 -1 -2 -2 -2 -2 -2
1 0 -0 -0 -1 -1 -1 -1 -1 -1 -1 0 1 0 -0 -1 -0 0 1 3 3 1 4 3 3 4 4 4 4 4 4 4 4 3 1 -0 -0 -0 -1 -1 -2 -1 -2
1 1 0 -0 -0 -0 -1 -1 -1 -1 0 2 3 3 2 3 4 4 4 3 3 3 4 3 4 4 4 4 4 4 4 4 4 4 1 -1 -1 -2 -2 -1 -1 -1 -1
1 1 0 -0 -0 -0 -0 -0 -1 -1 1 2 3 4 5 5 5 4 4 4 4 3 4 4 4 4 4 4 4 4 4 4 4 4 3 1 -0 -1 -2 -2 -2 -1 -1
1 1 0 0 -0 -0 -0 -0 -0 -1 1 2 4 5 5 5 5 4 4 4 4 4 3 4 4 4 4 4 4 4 4 4 4 4 3 3 1 0 -1 -2 -2 -2 -2
1 1 0 0 -0 -0 -0 1 0 -1 1 3 4 5 6 5 5 5 5 5 4 4 4 3 3 3 3 3 3 3 4 4 4 4 4 3 3 2 2 1 0 -0 -1
1 1 0 0 0 0 -0 2 3 3 2 2 4 5 6 6 5 5 5 4 4 3 3 3 3 3 3 3 3 3 3 3 4 4 4 3 3 3 3 3 3 2 1
1 1 1 0 0 1 3 4 5 4 3 4 5 5 6 6 5 4 3 3 3 3 3 3 3 3 3 3 3 3 3 3 3 4 4 4 3 3 3 4 5 5 4
1 1 1 1 0 2 5 6 5 5 4 5 5 5 6 6 5 3 3 2 3 2 3 3 3 3 3 3 4 3 3 3 3 3 4 4 3 3 2 2 2 3 4
1 1 1 1 1 3 4 5 5 6 5 5 5 5 5 5 4 3 2 2 2 2 2 2 3 3 3 3 3 3 2 2 3 3 3 3 2 3 3 3 3 3 4
2 1 2 1 1 1 2 4 4 5 4 4 3 4 5 4 3 3 2 2 2 2 2 2 2 3 2 2 4 4 5 4 3 4 4 4 4 3 4 4 4 4 3
2 2 1 1 1 1 1 3 3 4 3 4 3 3 3 2 2 2 2 2 2 2 2 1 1 1 3 2 3 4 6 6 5 3 4 4 4 4 4 4 4 4 5
2 1 1 1 1 0 1 2 4 5 5 4 3 3 3 2 2 2 2 2 2 2 2 1 2 2 2 4 2 3 4 5 7 7 5 4 4 5 5 4 5 5 5
2 2 1 1 1 0 2 3 4 4 5 4 3 3 2 2 2 2 2 2 2 1 2 2 2 2 3 3 3 3 4 4 5 6 7 6 5 4 4 5 5 5 5
2 1 1 1 1 1 2 3 3 4 5 4 3 3 2 2 2 2 2 2 1 2 2 2 2 2 3 3 3 3 4 5 6 6 7 7 8 6 6 5 5 5 5

GFSSE_con_lsi_096.txt.gz
Lid_Strength_Index
2 -0 -1 -1 -1 -1 -1 -1 -1 -1 -1 -1 -1 -1 -1 -1 -1 -1 -1 -1 -2 -2 -2 -2 -2 -2 -2 -2 -2 -2 -2 -2 -2 -2 -2 -2 -2 -2 -2 -2 -2 -1 -2
1 -0 -1 -1 -1 -1 -1 -1 -1 -1 -1 -2 -1 -1 -2 -1 -1 -1 -2 -2 -2 -2 -2 -2 -2 -2 -2 -2 -2 -2 -2 -2 -2 -3 -2 -2 -2 -2 -2 -1 -2 -1 -2
0 -0 -0 -1 -1 -2 -1 -2 -1 -1 -1 -1 -1 -1 -2 -2 -2 -2 -2 -2 -2 -2 -2 -2 -2 -1 -2 -2 -2 -2 -2 -3 -3 -2 -2 -0 -0 -2 -2 -2 -2 -2 -2
-0 -0 -0 -1 -1 -1 -1 -2 -2 -2 -2 -2 -2 -2 -2 -2 -2 -2 -2 -2 -2 -2 -2 -2 -1 -1 -2 -2 -2 -2 -2 -2 -3 -2 -0 -0 -1 -2 -2 -2 -2 -2 -2
0 -0 -0 -2 -1 -1 -2 -2 -2 -2 -2 -2 -2 -2 -2 -2 -2 -2 -2 -2 -2 -2 -2 -2 -1 -1 -1 -2 -2 -2 -2 -3 -3 -1 -0 -0 -1 -1 -2 -2 -2 -2 -2
0 -0 -1 -2 -2 -2 -2 -2 -2 -2 -2 -2 -2 -2 -2 -2 -2 -2 -2 -2 -2 -2 -2 -2 -1 -1 -1 -2 -2 -2 -2 -2 -2 0 -0 -1 -0 -2 -2 -2 -2 -2 -2
1 -0 -0 -2 -2 -2 -2 -2 -2 -2 -2 -2 -2 -2 -2 -2 -2 -2 -2 -2 -2 -2 -2 -2 -2 -2 -2 -2 -2 -2 -2 -3 -0 1 -0 -0 -0 -3 -2 -2 -2 -2 -2
0 -0 -0 -2 -2 -2 -2 -2 -2 -1 -1 -1 -1 -1 -2 -2 -2 -2 -2 -2 -2 -2 -2 -2 -2 -2 -2 -2 -2 -2 -2 -3 0 0 0 -0 -2 -3 -3 -2 -2 -2 -2
0 0 0 -0 -1 -2 -2 -2 -1 -1 -1 -2 -2 -2 -2 -2 -2 -2 -2 -2 -2 -2 -2 -2 -2 -2 -2 -1 -1 -1 -2 -3 1 1 1 1 -3 -3 -3 -3 -2 -2 -2
1 0 0 0 -0 -0 -0 -2 -1 -1 -1 -2 -2 -2 -2 -2 -2 -2 -2 -2 -2 -1 -1 -1 -0 -0 0 1 1 0 -2 -1 3 3 3 1 -2 -3 -2 -2 -3 -2 -2
1 1 0 0 0 -0 -0 -1 -1 -1 -1 -2 -2 -2 -2 -0 0 -0 -2 -2 -1 -0 0 1 1 0 0 -1 0 -1 1 6 5 4 3 0 -1 -2 -2 -2 -2 -2 -2
2 1 1 0 1 0 -0 -0 -0 -0 -0 0 0 0 1 1 0 0 -0 -0 0 0 1 2 3 1 1 7 6 3 7 7 5 5 3 -0 -0 -1 -1 -2 -1 -2 -2
2 1 1 1 0 1 -0 -0 -0 -0 0 2 2 3 2 2 2 2 3 4 4 2 5 5 6 6 7 7 7 7 7 7 6 3 0 -1 -2 -2 -1 -1 -1 -2 -2
2 2 1 1 1 0 -0 0 0 1 2 4 4 4 5 6 6 5 6 6 6 6 6 6 7 7 7 7 8 8 8 7 7 4 3 -0 -1 -2 -2 -2 -1 -2 -2
2 2 1 1 1 1 0 1 1 3 4 4 6 6 7 7 8 8 8 7 7 7 7 7 7 7 7 7 7 8 8 8 7 5 5 1 0 -1 -2 -2 -2 -2 -2
2 2 1 1 0 0 0 0 1 2 4 5 6 7 7 8 8 8 8 7 7 7 8 7 7 7 7 7 7 7 7 7 7 6 5 4 1 1 -0 -1 -1 -2 -2
2 1 1 1 0 0 1 2 1 2 4 5 6 8 8 8 9 8 8 7 7 8 7 7 7 6 6 5 7 7 7 7 7 7 6 5 4 2 2 1 1 0 -0
2 1 1 1 1 1 2 3 3 3 4 5 6 7 7 7 7 8 8 8 7 6 6 6 6 6 6 6 6 6 6 6 7 7 6 6 6 5 3 3 3 2 2
2 1 1 1 2 3 4 4 4 3 4 5 6 7 7 7 7 7 7 7 7 6 6 6 6 6 6 6 6 7 6 6 6 6 7 6 7 6 6 4 4 4 4
1 1 1 1 3 4 5 5 5 4 5 5 7 7 7 7 7 7 7 7 7 6 6 6 6 6 6 6 5 5 6 6 6 6 7 6 6 5 6 6 6 5 3
2 1 2 2 4 5 6 5 5 6 6 7 6 6 7 7 6 6 6 6 6 5 5 5 6 6 6 6 7 7 6 6 6 6 6 6 6 6 6 6 6 6 6
2 2 2 3 4 5 5 5 4 6 7 7 5 6 6 6 6 5 5 5 5 5 5 5 6 6 6 6 7 7 8 7 6 7 7 6 7 6 7 6 7 8 7
3 4 2 2 4 4 4 4 5 6 6 7 6 6 6 5 5 5 5 5 5 5 5 5 5 5 6 5 5 7 9 10 9 7 7 7 8 8 7 8 8 8 8
3 3 2 2 2 3 3 5 5 7 8 7 6 6 6 5 5 5 5 5 5 5 5 5 4 5 5 6 6 5 7 8 10 10 8 7 7 7 8 8 8 8 8
2 2 2 2 2 2 2 4 6 7 7 6 6 7 6 6 5 4 5 5 5 5 5 5 5 6 6 6 7 7 7 7 8 10 11 10 9 9 9 9 9 9 9
2 2 2 2 2 2 2 4 5 6 7 7 8 6 7 6 5 5 5 5 5 5 5 5 5 5 6 7 7 7 8 9 10 10 11 11 11 10 9 9 9 9 8

GFSSE_con_lsi_099.txt.gz
Lid_Strength_Index
2 -0 -2 -1 -1 -1 -1 -1 -1 -1 -1 -1 -1 -1 -1 -1 -1 -2 -2 -2 -2 -2 -2 -2 -2 -2 -2 -2 -2 -2 -2 -2 -2 -2 -2 -2 -2 -2 -2 -1 -1 -1 -2
1 -0 -2 -1 -1 -1 -1 -1 -1 -1 -1 -1 -2 -2 -2 -1 -2 -2 -2 -2 -2 -2 -2 -2 -2 -2 -2 -2 -2 -2 -2 -2 -2 -2 -2 -2 -2 -2 -2 -1 -1 -1 -2
0 -0 -1 -2 -1 -2 -2 -1 -1 -1 -1 -1 -2 -2 -2 -2 -2 -2 -2 -2 -2 -2 -2 -1 -2 -2 -2 -2 -2 -2 -2 -2 -2 -2 -2 -0 -0 -2 -2 -2 -2 -2 -2
0 -0 -0 -2 -2 -2 -2 -2 -2 -2 -2 -2 -2 -2 -2 -2 -2 -2 -2 -2 -2 -2 -2 -1 -2 -2 -2 -2 -2 -2 -2 -2 -2 -2 -1 -1 -1 -2 -2 -2 -2 -2 -2
0 -0 -0 -2 -2 -2 -2 -2 -2 -2 -2 -2 -2 -2 -2 -2 -2 -2 -2 -2 -2 -2 -2 -2 -2 -2 -2 -2 -2 -2 -2 -2 -2 -1 0 0 -0 -1 -2 -2 -2 -2 -2
1 0 -1 -2 -2 -2 -2 -2 -2 -2 -2 -2 -2 -2 -2 -2 -2 -2 -2 -2 -2 -2 -2 -2 -2 -2 -2 -2 -2 -2 -3 -2 -1 0 -0 -1 -0 -2 -2 -2 -2 -2 -2
0 -0 -0 -2 -2 -2 -2 -2 -2 -2 -2 -2 -2 -2 -2 -2 -2 -2 -2 -2 -2 -2 -2 -2 -2 -2 -2 -2 -2 -3 -3 -2 1 1 1 0 -0 -2 -2 -2 -2 -2 -2
0 -0 -0 -2 -2 -2 -2 -2 -2 -2 -2 -1 -2 -2 -2 -2 -2 -2 -2 -2 -2 -2 -2 -2 -2 -2 -2 -2 -1 -2 -1 -1 1 2 2 1 -3 -3 -3 -2 -2 -2 -2
0 0 0 -0 -1 -2 -2 -2 -2 -1 -1 -2 -2 -2 -2 -2 -2 -2 -2 -2 -2 -2 -2 -2 -2 -2 -1 -1 -1 -3 -2 -0 4 3 2 2 -3 -3 -3 -2 -2 -2 -2
1 1 1 0 0 0 -0 -2 -1 -1 -2 -2 -2 -2 -2 -2 -2 -2 -2 -2 -2 -2 -1 -1 -0 0 -0 -1 -1 -1 -0 1 4 4 3 1 -3 -3 -2 -2 -2 -2 -2
1 1 1 1 0 0 -0 -1 -1 -2 -2 -2 -2 -2 -1 1 0 -0 -2 -1 -1 0 0 0 -0 0 0 -1 -1 0 2 5 4 3 3 -2 -1 -2 -2 -2 -2 -3 -2
2 1 1 1 1 0 -0 0 0 -0 0 1 0 0 2 3 2 1 0 -0 0 1 0 0 1 1 4 8 7 4 7 5 3 3 1 -2 -2 -1 -1 -2 -2 -2 -3
2 1 1 1 1 0 0 -0 -0 -0 0 1 1 2 2 2 4 5 6 5 5 3 6 6 7 7 8 8 8 8 7 6 5 4 2 -1 -2 -2 -1 -1 -2 -2 -3
2 2 1 1 0 0 -0 -0 -0 -0 1 3 3 3 4 4 6 7 7 8 8 7 8 8 8 9 9 9 10 10 9 8 7 6 3 -1 -2 -2 -2 -2 -2 -2 -2
2 2 1 1 1 0 0 1 1 4 5 6 7 6 7 7 8 8 9 9 9 9 9 9 9 9 9 9 10 10 10 9 7 6 5 1 -0 -1 -1 -2 -2 -2 -2
3 2 1 1 1 0 1 3 3 5 6 7 8 9 9 9 9 9 9 9 9 9 9 9 9 9 9 9 8 8 9 9 7 6 6 4 1 1 0 -0 -1 -1 -1
2 2 2 1 0 1 1 3 3 5 6 7 8 9 9 9 9 9 9 10 10 10 8 9 8 8 7 7 9 8 8 8 8 7 6 5 5 1 2 2 1 1 1
2 2 1 1 1 2 3 2 4 5 6 6 7 8 8 8 8 8 9 9 9 9 8 8 8 8 8 8 8 8 8 8 8 8 6 6 6 5 4 2 2 2 2
2 2 1 1 2 4 3 4 4 4 5 6 8 9 8 8 7 8 7 8 8 8 9 9 9 8 8 8 7 7 8 8 8 7 8 7 7 7 6 4 3 3 3
2 1 1 2 3 4 4 4 4 4 4 5 8 8 8 7 7 7 7 8 8 8 8 9 8 8 8 8 6 6 7 7 8 8 8 6 7 6 6 6 7 6 2
2 2 2 2 4 5 5 6 6 4 5 7 8 8 7 7 7 6 7 7 7 7 8 7 7 8 8 7 8 8 8 8 8 8 8 8 7 6 6 6 6 7 7
2 2 2 3 4 5 5 4 4 4 7 7 7 7 7 7 6 6 6 7 7 7 7 7 7 7 7 7 8 9 10 8 7 8 8 7 9 8 7 7 8 8 8
3 2 3 4 5 4 4 4 4 5 7 7 8 7 7 6 6 6 6 6 7 7 7 6 6 7 7 7 7 8 10 10 10 8 8 8 8 8 8 8 8 8 9
3 2 2 2 4 4 4 4 5 6 8 8 8 7 7 6 6 6 6 7 7 6 6 6 5 6 7 7 7 6 8 9 10 11 9 8 8 8 10 10 10 9 9
2 2 2 2 4 4 4 4 5 7 7 5 7 8 7 7 6 6 7 7 7 6 6 6 7 7 7 7 7 8 8 9 9 10 12 11 10 10 10 10 10 10 10
3 2 2 2 3 3 4 5 5 6 6 6 8 8 7 8 6 6 6 7 6 6 6 7 7 7 7 8 8 8 9 9 10 11 13 13 12 11 10 10 10 10 9

GFSSE_con_lsi_105.txt.gz
Lid_Strength_Index
1 -0 -1 -1 -1 -1 -1 -1 -1 -1 -1 -1 -1 -1 -1 -1 -1 -2 -2 -2 -1 -2 -2 -2 -2 -2 -2 -2 -2 -2 -2 -2 -2 -2 -1 -1 -1 -1 -2 -1 -1 -0 -2
0 -0 -1 -2 -1 -1 -1 -1 -1 -1 -1 -1 -1 -1 -2 -2 -2 -2 -2 -2 -1 -2 -2 -2 -2 -2 -2 -2 -2 -2 -2 -2 -2 -2 -1 -1 -1 -2 -2 -1 -2 -1 -2
0 -0 -0 -2 -1 -1 -1 -1 -1 -1 -1 -1 -1 -2 -2 -2 -2 -2 -2 -2 -1 -2 -2 -2 -2 -2 -2 -2 -2 -2 -2 -2 -2 -2 -2 0 -0 -2 -2 -2 -2 -2 -2
0 -0 -0 -2 -2 -1 -1 -2 -1 -1 -1 -1 -1 -2 -2 -2 -2 -2 -2 -2 -1 -2 -2 -2 -2 -2 -2 -2 -2 -2 -2 -2 -2 -0 1 -0 -0 -2 -2 -2 -2 -2 -2
0 -0 -0 -2 -1 -2 -1 -1 -1 -1 -2 -2 -2 -2 -2 -2 -2 -2 -2 -2 -2 -2 -2 -2 -2 -2 -2 -2 -2 -2 -2 -2 -1 1 3 1 -0 -1 -2 -2 -1 -2 -1
1 -0 -1 -1 -1 -1 -1 -2 -2 -2 -2 -2 -2 -2 -2 -2 -2 -2 -2 -2 -2 -2 -2 -2 -2 -2 -2 -2 -2 -2 -2 -2 -1 3 3 1 0 -2 -2 -2 -2 -2 -1
1 -0 -0 -2 -2 -2 -2 -2 -2 -2 -2 -2 -2 -2 -2 -2 -2 -2 -2 -2 -2 -2 -2 -2 -2 -2 -2 -2 -2 -2 -2 -2 2 2 1 2 -0 -2 -2 -2 -2 -2 -2
0 -0 -0 -2 -2 -2 -2 -2 -2 -2 -2 -2 -2 -2 -2 -2 -2 -2 -2 -2 -2 -2 -2 -2 -2 -2 -2 -2 -1 -2 -2 -1 2 2 1 1 -2 -2 -2 -2 -2 -2 -2
0 1 1 -0 -1 -2 -2 -2 -2 -2 -2 -2 -2 -2 -2 -2 -2 -2 -2 -2 -2 -2 -2 -2 -2 -2 -2 -1 -1 -1 -1 -1 4 3 0 1 -3 -2 -2 -2 -2 -2 -2
1 2 2 1 0 0 -0 -2 -2 -2 -1 -2 -2 -2 -1 -2 -2 -2 -2 -2 -2 -1 -1 -1 -2 -2 -2 -1 -1 -1 -1 -1 3 2 1 -0 -2 -2 -2 -2 -2 -2 -2
2 2 1 1 1 0 0 -1 -1 -1 -1 -2 -1 -2 -0 2 1 1 -1 -1 -1 -0 -0 -0 -1 -1 -1 -1 -1 -1 0 3 3 1 1 -3 -2 -3 -3 -2 -2 -2 -2
3 2 1 1 1 0 -0 0 1 -0 1 1 1 3 3 3 2 2 0 -1 1 1 1 1 0 0 4 7 5 3 5 4 4 3 0 -3 -2 -3 -3 -2 -2 -2 -2
2 1 1 1 1 0 1 1 2 2 2 2 3 3 3 3 4 6 7 7 8 6 9 8 9 9 9 8 8 7 6 6 5 3 -1 -3 -2 -2 -2 -1 -2 -2 -2
2 1 1 0 0 1 0 1 2 2 2 2 3 3 4 6 7 8 8 9 10 11 11 11 11 11 10 9 9 9 9 8 7 5 1 -1 -1 -2 -2 -2 -2 -2 -1
2 1 1 1 0 1 1 1 2 2 1 2 3 3 5 8 8 9 10 10 11 11 11 11 11 12 12 11 10 10 10 9 7 6 5 -1 -0 -1 -1 -1 -1 -1 -1
2 2 1 1 0 1 1 1 1 1 2 3 4 4 7 8 9 9 10 11 11 11 11 11 11 11 11 11 11 10 9 9 8 7 6 4 1 1 1 1 0 0 -0
3 2 1 1 0 1 1 1 1 1 3 3 4 5 7 8 9 10 11 11 11 11 11 11 11 11 11 11 12 11 10 9 8 8 7 6 5 1 2 1 1 1 1
2 2 1 0 0 1 1 1 2 4 6 5 6 6 7 8 10 10 10 11 11 11 10 10 10 11 11 11 12 11 11 11 9 9 8 8 7 7 4 2 2 2 1
2 2 2 1 1 1 1 3 5 7 7 7 7 8 8 9 9 10 10 10 10 10 10 9 11 10 11 10 10 10 10 10 10 8 9 8 8 8 8 4 2 3 3
2 2 1 1 1 1 3 5 6 7 7 9 9 8 9 9 9 10 10 9 9 9 9 9 9 9 10 9 8 8 9 9 9 10 9 8 9 8 8 8 9 8 2
2 2 1 1 1 3 5 6 7 7 6 7 8 8 9 9 9 9 10 10 9 9 9 9 9 9 9 9 9 9 9 10 10 10 10 10 9 9 9 8 9 8 8
3 2 2 1 2 3 4 5 6 5 4 5 8 9 8 8 9 9 9 9 9 9 9 9 8 9 9 9 10 11 12 10 10 10 10 10 11 10 9 9 10 10 10
3 2 2 1 2 4 5 5 5 5 5 5 7 9 8 8 8 8 9 8 8 8 8 8 8 8 9 9 10 10 12 12 12 10 10 10 10 10 10 10 10 10 10
3 2 2 2 3 4 4 5 6 5 6 5 5 7 8 8 8 7 7 8 8 8 8 8 8 8 8 9 9 8 10 10 11 11 10 10 10 10 11 10 11 10 11
2 2 3 2 3 3 4 4 4 4 6 6 6 7 8 9 8 8 8 8 8 8 8 8 8 8 9 9 10 10 10 11 12 11 12 10 10 10 10 11 11 11 11
2 2 3 3 3 3 3 3 3 5 6 6 6 7 5 7 8 8 7 8 7 8 8 8 9 9 10 10 10 10 10 10 11 12 13 12 12 11 11 11 11 11 11

GFSSE_con_lsi_108.txt.gz
Lid_Strength_Index
1 1 -1 -1 -1 -1 -1 -1 -1 -1 -1 -1 -1 -1 -2 -2 -2 -2 -2 -2 -2 -2 -2 -2 -2 -2 -2 -2 -2 -2 -2 -2 -2 -2 -1 -1 -2 -2 -2 -2 -1 -1 -2
0 1 -1 -2 -1 -1 -1 -1 -1 -1 -1 -1 -1 -1 -2 -2 -2 -2 -2 -1 -2 -2 -2 -2 -2 -2 -2 -2 -2 -2 -2 -2 -2 -2 -1 -1 -1 -2 -2 -2 -2 -1 -2
0 0 -0 -2 -2 -1 -1 -1 -1 -1 -1 -1 -1 -2 -2 -2 -2 -2 -2 -1 -2 -2 -2 -2 -2 -2 -2 -2 -2 -2 -2 -2 -2 -2 -1 0 -1 -2 -2 -2 -2 -2 -2
0 0 -0 -1 -2 -2 -1 -1 -1 -1 -1 -1 -2 -2 -2 -2 -2 -2 -2 -1 -2 -2 -2 -2 -2 -2 -2 -2 -2 -2 -2 -2 -1 -1 -0 0 -0 -2 -2 -2 -2 -2 -2
0 -0 -0 -2 -2 -1 -1 -1 -1 -1 -2 -2 -2 -2 -2 -2 -2 -2 -1 -2 -2 -2 -2 -2 -2 -2 -2 -2 -2 -2 -2 -2 -1 2 2 -0 0 -1 -2 -2 -1 -2 -2
0 0 -1 -2 -2 -1 -1 -1 -1 -2 -2 -2 -2 -2 -2 -2 -2 -2 -1 -2 -2 -2 -2 -2 -2 -2 -2 -2 -2 -2 -2 -2 0 3 2 -0 -0 -2 -2 -2 -2 -2 -2
1 -0 -0 -2 -1 -1 -1 -2 -2 -2 -2 -2 -2 -2 -2 -2 -2 -2 -2 -2 -2 -2 -2 -2 -2 -2 -2 -2 -2 -2 -2 -2 2 2 2 1 -1 -2 -2 -2 -2 -2 -2
0 -0 -0 -1 -2 -1 -2 -2 -2 -2 -2 -2 -2 -2 -2 -2 -2 -2 -2 -2 -2 -2 -2 -2 -2 -2 -2 -2 -2 -2 -2 -1 1 1 2 1 -2 -2 -2 -2 -2 -2 -2
0 0 1 0 -1 -2 -2 -2 -2 -2 -2 -2 -2 -2 -2 -2 -2 -2 -2 -2 -2 -2 -2 -2 -2 -2 -2 -1 -1 -2 -2 -1 3 2 0 0 -2 -2 -2 -2 -2 -2 -2
2 1 2 1 1 0 -0 -2 -2 -2 -2 -1 -2 -2 -2 -2 -2 -2 -2 -2 -2 -2 -2 -2 -2 -2 -1 -1 -2 -2 -2 -1 2 1 1 -1 -2 -3 -2 -2 -2 -2 -2
2 3 2 1 1 0 0 -1 -2 -2 -2 -2 -2 -2 -1 2 1 1 -2 -2 -1 -1 -1 -1 -1 -0 -1 -1 -2 -2 0 3 2 1 1 -3 -2 -3 -3 -2 -2 -2 -2
2 3 3 1 1 0 -0 0 0 -0 -0 0 1 3 3 3 2 1 -1 -2 -0 0 -0 -1 0 1 4 7 4 2 4 3 2 1 0 -3 -2 -3 -3 -3 -2 -2 -2
2 2 2 1 1 0 0 1 1 1 2 2 3 4 3 3 5 6 7 7 7 3 8 8 9 10 10 8 8 6 5 4 4 2 -1 -2 -2 -2 -2 -1 -1 -1 -1
2 2 1 1 0 0 0 2 2 2 3 4 3 4 4 5 7 8 9 10 11 11 12 12 11 11 10 10 10 9 7 7 6 4 0 -1 -1 -1 -1 -1 -1 -1 -1
2 2 1 0 0 0 1 2 3 3 3 3 4 4 5 7 8 9 10 11 11 11 12 12 12 12 11 11 10 10 9 8 7 6 4 -1 -0 -0 -0 -0 -1 -1 -1
2 2 1 1 0 0 0 2 3 3 3 3 4 4 6 8 9 10 10 11 11 12 12 12 12 12 12 12 11 10 10 9 8 7 6 4 0 1 0 0 0 -0 -1
2 1 1 1 0 0 0 1 2 2 2 3 4 5 8 8 9 10 11 11 11 12 11 11 12 12 12 12 13 12 10 10 9 9 8 8 6 1 1 1 1 1 0
2 2 1 1 0 0 1 1 3 2 3 3 4 5 8 8 9 10 11 11 11 11 11 11 11 11 12 12 13 12 12 11 10 10 9 9 8 8 5 2 2 2 1
2 2 1 1 1 1 1 2 4 5 4 4 4 5 8 8 10 10 11 11 11 11 11 10 11 10 11 12 11 11 11 11 11 9 10 9 8 8 8 4 3 2 2
2 1 2 1 1 1 2 5 7 6 7 6 5 5 7 9 10 10 10 11 10 11 11 10 10 10 10 10 8 9 10 10 10 10 10 9 9 9 9 9 9 8 3
2 2 2 1 1 2 5 6 6 6 7 8 8 6 6 8 9 10 10 10 10 11 11 10 11 10 10 10 10 10 10 10 11 10 11 10 9 9 9 9 10 10 9
2 2 2 1 1 1 2 3 5 6 5 6 6 8 8 8 9 9 9 10 10 10 11 11 10 10 10 10 10 11 11 10 10 11 11 11 11 10 10 11 11 11 10
3 2 2 1 1 1 3 4 5 5 5 6 7 9 8 8 8 9 9 9 9 10 10 9 9 9 9 9 10 10 12 13 12 11 11 11 11 12 11 11 11 11 11
3 3 2 1 1 2 3 4 6 5 7 5 6 7 6 7 9 9 9 9 9 9 9 9 8 9 9 10 10 9 11 11 12 12 11 11 11 11 11 11 11 10 10
2 3 2 1 2 4 4 4 5 6 6 6 6 7 7 7 8 8 9 9 9 9 9 8 9 9 9 9 10 10 11 12 12 12 12 11 11 11 11 11 11 11 11
2 2 2 2 3 3 3 4 5 5 6 6 7 7 7 7 8 8 8 9 9 8 9 9 9 9 10 10 10 10 10 11 12 12 12 12 12 11 11 11 11 11 11

GFSSE_con_lsi_111.txt.gz
Lid_Strength_Index
1 -1 -1 -1 -1 -1 -1 -1 -2 -2 -2 -2 -1 -2 -2 -2 -2 -2 -2 -2 -2 -2 -2 -2 -2 -2 -2 -2 -2 -2 -2 -2 -2 -2 -1 -2 -2 -2 -2 -2 -2 -1 -2
-0 -1 -1 -2 -1 -1 -1 -1 -1 -2 -1 -1 -1 -2 -2 -2 -2 -1 -2 -2 -2 -2 -2 -2 -2 -2 -2 -2 -2 -2 -2 -2 -2 -2 -1 -2 -1 -2 -2 -2 -2 -1 -2
-0 -1 -1 -2 -2 -1 -2 -1 -1 -1 -1 -1 -2 -2 -2 -2 -2 -2 -2 -2 -2 -2 -2 -2 -2 -2 -2 -2 -2 -2 -2 -2 -2 -2 -2 -1 -1 -2 -2 -2 -2 -2 -2
-0 -1 -1 -2 -2 -2 -1 -1 -1 -1 -1 -2 -2 -2 -2 -2 -2 -2 -1 -2 -2 -2 -2 -2 -2 -2 -2 -2 -2 -2 -2 -2 -2 -2 -1 -1 -1 -2 -2 -2 -2 -2 -2
-0 -1 -1 -1 -2 -2 -2 -1 -1 -1 -2 -2 -2 -2 -2 -2 -2 -2 -2 -2 -2 -2 -2 -2 -2 -2 -2 -2 -2 -2 -2 -2 -1 -2 -1 -1 -1 -1 -2 -2 -2 -2 -2
-0 -1 -1 -1 -1 -2 -1 -1 -2 -2 -2 -2 -2 -2 -2 -2 -2 -1 -2 -2 -2 -2 -2 -2 -2 -2 -2 -2 -2 -2 -2 -1 -1 -1 -1 -2 -1 -2 -2 -2 -2 -2 -2
-0 -1 -1 -1 -1 -2 -1 -1 -2 -2 -2 -2 -2 -2 -2 -2 -2 -2 -2 -2 -2 -2 -2 -2 -2 -2 -2 -2 -2 -2 -2 -2 -1 -1 -1 -1 -2 -2 -2 -2 -2 -2 -2
0 -1 -1 -1 -2 -2 -2 -2 -2 -2 -2 -2 -2 -2 -2 -2 -2 -2 -2 -2 -2 -2 -2 -2 -2 -2 -2 -2 -2 -2 -2 -2 -1 -1 -1 -1 -2 -2 -2 -2 -2 -2 -2
-0 -0 -1 -1 -1 -2 -2 -2 -2 -2 -2 -2 -2 -2 -2 -2 -2 -2 -2 -2 -2 -2 -2 -2 -2 -2 -2 -2 -2 -2 -2 -2 -1 -1 -1 -1 -2 -2 -2 -2 -2 -2 -2
-0 -0 -0 -1 -1 -1 -1 -2 -2 -2 -2 -2 -2 -2 -2 -2 -2 -2 -2 -2 -2 -2 -2 -2 -1 -1 -1 -1 -2 -2 -2 -2 -2 -2 -1 -2 -3 -2 -2 -2 -2 -2 -2
1 0 -0 -0 -1 -1 -1 -1 -2 -2 -2 -2 -2 -2 -1 -1 -1 -1 -2 -3 -2 -2 -2 -1 -1 -1 -1 -1 -1 -1 -1 -1 -1 -1 -1 -3 -3 -3 -3 -3 -2 -2 -2
2 1 0 -0 -0 -1 -1 -1 -1 -1 -1 -1 -1 -1 -1 -1 -1 -1 -2 -2 -2 -2 -2 -1 -1 -0 1 0 -0 -0 -0 -1 -1 -1 -2 -3 -3 -3 -3 -2 -2 -2 -2
2 1 1 0 -1 -1 -1 -1 -1 -0 -0 -1 -1 -0 -0 -0 -1 -0 1 1 0 -0 1 3 4 4 2 1 1 1 -0 -1 -1 -1 -2 -3 -2 -2 -1 -1 -1 -1 -1
2 1 1 0 -0 -1 -1 -1 -0 0 1 0 0 -0 0 1 2 2 3 3 2 3 6 6 5 5 4 3 2 1 1 1 0 0 -1 -1 -0 -0 -1 -1 -1 -1 -1
2 1 1 0 -0 -0 -0 -1 1 1 1 1 0 0 1 2 3 4 5 5 6 6 6 6 6 6 6 6 5 4 3 2 2 2 2 -1 -0 -1 -1 -1 -1 -1 -1
2 1 1 0 -0 -0 -0 -0 1 1 1 1 1 1 2 3 5 6 7 7 7 6 7 7 7 6 6 6 6 6 5 4 3 3 2 1 -1 0 0 -0 -0 -0 -0
2 1 1 0 -0 0 0 0 1 1 1 0 1 1 3 4 5 6 7 7 7 7 7 7 8 7 7 7 7 7 6 5 5 4 4 3 3 1 1 1 1 1 0
1 1 1 0 0 0 0 0 1 1 1 0 1 2 4 4 6 6 7 7 7 7 7 7 7 7 7 7 7 7 7 6 6 6 5 5 4 4 2 2 2 1 1
1 1 1 1 1 0 0 0 1 1 1 1 1 3 5 5 6 6 6 7 7 7 6 7 7 6 7 7 7 7 7 7 7 6 6 5 5 5 4 4 3 2 1
1 1 1 1 0 0 1 3 3 3 2 1 1 3 7 6 7 6 7 7 7 6 7 6 7 7 6 6 6 6 6 6 5 5 5 6 5 4 4 5 4 5 3
2 2 1 1 1 1 3 4 4 4 4 2 2 3 6 7 8 7 7 7 7 6 6 6 6 6 6 6 6 6 6 6 6 6 5 6 6 5 5 5 6 6 6
2 2 1 1 1 1 1 1 3 4 4 3 5 6 6 8 8 9 7 7 7 7 7 7 6 7 6 7 6 6 8 7 7 7 7 6 6 6 7 7 7 7 6
2 2 2 1 1 1 1 3 4 4 5 5 7 8 8 8 8 8 8 8 8 7 7 7 7 6 7 7 7 6 8 8 7 6 7 7 6 6 7 7 7 7 7
2 2 1 1 1 1 2 3 4 4 5 5 7 7 7 7 7 8 8 8 8 8 8 7 7 6 5 5 6 6 6 6 7 8 7 7 6 7 7 6 6 6 6
2 2 2 1 1 1 2 1 2 4 5 7 7 7 7 7 6 6 7 8 8 7 7 7 6 6 5 5 5 6 6 6 7 6 7 7 6 7 6 6 6 6 6
2 2 1 2 1 2 2 2 3 5 6 7 7 7 7 7 6 6 7 7 7 6 6 6 6 6 6 5 5 5 6 6 7 6 7 6 6 6 6 6 6 6 6

GFSSE_con_lsi_114.txt.gz
Lid_Strength_Index
0 -1 -1 -1 -1 -1 -1 -2 -2 -2 -2 -1 -1 -2 -2 -1 -2 -2 -2 -2 -2 -2 -2 -2 -2 -2 -2 -2 -2 -2 -2 -2 -1 -1 -1 -1 -1 -1 -2 -2 -2 -1 -2
-1 -1 -1 -1 -1 -1 -1 -1 -1 -2 -1 -1 -1 -2 -2 -2 -1 -2 -2 -2 -1 -2 -2 -2 -2 -2 -2 -2 -2 -2 -2 -2 -2 -1 -2 -2 -1 -2 -2 -2 -2 -1 -2
-0 -1 -1 -1 -2 -1 -1 -1 -1 -1 -1 -1 -2 -2 -2 -2 -1 -2 -2 -2 -2 -2 -2 -2 -2 -2 -2 -2 -2 -2 -2 -2 -2 -2 -2 -1 -1 -2 -2 -2 -2 -2 -2
-1 -1 -1 -1 -1 -2 -1 -1 -1 -1 -1 -2 -2 -2 -2 -2 -2 -1 -2 -2 -2 -2 -2 -2 -2 -2 -2 -2 -2 -2 -2 -2 -2 -2 -1 -1 -1 -2 -2 -2 -2 -2 -2
-0 -1 -1 -1 -1 -2 -1 -1 -1 -1 -1 -2 -2 -2 -2 -2 -2 -1 -2 -2 -2 -2 -2 -2 -2 -2 -2 -2 -2 -2 -2 -2 -2 -2 -1 -1 -1 -1 -2 -2 -2 -2 -2
-0 -1 -1 -1 -1 -1 -1 -1 -1 -1 -2 -2 -2 -2 -2 -2 -2 -1 -2 -2 -2 -2 -2 -2 -2 -2 -2 -2 -2 -2 -2 -2 -2 -2 -2 -2 -1 -2 -2 -2 -2 -2 -2
-0 -1 -1 -1 -1 -1 -1 -1 -1 -2 -2 -2 -2 -2 -2 -2 -1 -1 -2 -2 -2 -2 -2 -2 -2 -2 -2 -2 -2 -2 -2 -2 -1 -1 -1 -1 -2 -2 -2 -2 -2 -2 -2
-0 -1 -1 -1 -2 -1 -1 -1 -2 -2 -2 -2 -2 -2 -2 -1 -1 -1 -2 -2 -2 -2 -2 -2 -2 -2 -2 -2 -2 -2 -2 -3 -2 -1 -1 -1 -2 -2 -2 -2 -2 -2 -2
-1 -1 -1 -1 -1 -1 -2 -2 -2 -2 -2 -2 -2 -2 -2 -2 -2 -2 -2 -2 -2 -2 -2 -2 -2 -2 -2 -2 -2 -2 -2 -3 -2 -2 -1 -1 -2 -2 -2 -2 -2 -2 -2
-0 -0 -0 -1 -1 -1 -1 -2 -2 -2 -2 -2 -2 -2 -2 -2 -2 -2 -2 -2 -2 -2 -2 -2 -1 -1 -2 -2 -2 -2 -2 -3 -1 -2 -2 -2 -2 -2 -2 -2 -2 -2 -2
0 -0 -0 -0 -1 -1 -1 -1 -2 -2 -2 -2 -2 -2 -2 -1 -1 -2 -2 -2 -2 -2 -2 -1 -1 -1 -1 -1 -1 -1 -3 -1 -1 -1 -2 -3 -2 -3 -3 -2 -2 -2 -2
1 1 -0 -0 -1 -1 -1 -1 -1 -1 -1 -1 -1 -1 -1 -1 -1 -2 -2 -3 -2 -2 -2 -2 -2 -1 -1 1 -0 -1 -1 -1 -1 -1 -1 -3 -2 -2 -3 -2 -2 -2 -2
1 1 0 -0 -1 -1 -1 -1 -1 -1 -2 -1 -1 -1 -1 -1 -2 -1 -1 -1 -2 -2 0 1 1 1 0 0 0 -1 -1 0 -0 -1 -1 -2 -1 -1 -1 -1 -1 -1 -1
1 1 0 -0 -0 -1 -1 -1 -1 -1 -1 -1 -1 -1 -1 -1 -1 -1 -0 -0 -1 1 4 4 3 1 1 1 0 0 1 1 0 1 -0 -1 -1 -1 -1 -1 -1 -1 -1
2 1 1 -0 -0 -1 -1 -1 -1 -0 -0 -1 -1 -1 -1 -1 -0 0 1 1 2 4 4 4 4 4 3 3 2 2 2 2 2 2 2 -1 -1 -1 -1 -1 -1 -1 -1
1 1 0 0 -0 -0 -0 -0 -0 -0 -1 -1 -1 -1 -1 -0 1 1 2 3 4 5 4 4 4 5 5 4 4 4 4 3 3 3 2 1 -1 -0 -1 -1 -0 0 0
1 1 1 0 -0 -0 -0 -0 -1 -0 -0 -1 0 -0 0 1 2 3 3 5 5 5 5 5 5 5 5 5 5 5 5 5 4 4 3 3 2 1 1 1 1 1 1
1 1 0 0 -0 -0 -0 -0 -0 -0 -0 -1 -1 0 1 2 3 4 5 5 5 5 5 5 5 5 5 5 5 5 5 5 5 5 5 4 4 4 3 2 2 2 2
1 1 1 0 0 -0 0 -0 -0 -1 -0 -1 0 1 2 3 4 5 5 5 5 5 5 5 5 5 6 5 5 5 5 5 5 6 5 5 5 4 4 4 3 2 1
1 1 1 1 0 -0 0 0 -0 -0 -0 -1 0 1 3 4 4 5 5 5 5 5 5 5 5 5 5 5 6 6 5 4 4 4 5 5 4 3 2 3 3 3 3
1 1 1 1 1 0 1 2 2 1 1 -0 0 1 3 4 6 6 5 6 5 5 5 5 5 5 5 5 5 5 5 4 4 4 4 4 4 3 4 4 3 3 4
2 2 1 1 1 1 1 1 1 2 1 0 0 1 3 5 6 6 6 6 5 5 5 5 5 5 5 5 6 5 7 6 6 5 5 5 5 4 4 5 4 4 4
2 2 1 1 1 1 0 2 4 4 3 3 4 5 5 6 6 8 7 6 5 5 5 5 5 5 6 6 6 6 8 8 6 5 5 5 5 5 5 5 5 5 5
2 1 1 1 1 0 0 1 2 2 4 4 7 7 7 7 7 7 7 8 7 7 6 6 6 5 5 6 6 5 5 4 6 6 5 5 5 5 5 5 5 5 5
1 2 1 1 1 1 1 2 1 3 5 6 7 7 7 6 6 6 6 7 8 7 7 6 6 6 5 5 6 5 5 5 5 6 7 6 6 6 5 5 4 4 4
1 2 2 1 1 1 1 1 3 5 7 7 7 7 7 7 6 6 6 6 7 7 6 6 5 5 5 4 4 4 5 5 5 6 6 6 4 4 4 4 4 4 4